Notices

What's New in latest Release from April 7th, 2021:

- Updated Glossary, including Speed of Maximum Gust, and Total Hourly Precipitation

- Updated national and regional climate services offices contacts and prices information

- Addition of station inventory lists for 1981-2010, 1971-2000, and 1961-1990 Normals.

If you haven't already, please take our survey and provide feedback about our website: https://eccc.sondage-survey.ca/f/LanguageSelection.aspx?s=442ca660-fcf1-47c0-95a9-59707d6fd709

Hourly Data Report for December 31, 2020

FORT GOOD HOPE CS
NORTHWEST TERRITORIES
Current Station Operator: ECCC - MSC

66°14'32.044" N
128°38'39.081" W
81.70 m
2201450
71491
ZGH

Download Data

Hourly Data (December 2020)
Hourly Data Report for December 31, 2020
TIME
LST
Temp Definition
°C
Dew Point Definition
°C
Rel Hum Definition
%
Precip. Amount Definition
mm

Wind Dir Definition
10's deg

Wind Spd Definition
km/h
Visibility Definition
km
Stn Press Definition
kPa
Hmdx Definition


Wind Chill Definition


Weather Definition


00:00 -24.1 -26.9 78 0.0 8 6   100.76   -30 LegendNANA
01:00 -24.7 -27.6 77 0.0 8 5   100.74   -30 LegendNANA
02:00 -25.4 -28.2 77 0.0 6 2   100.78   -27 LegendNANA
03:00 -25.5 -28.4 77 0.0 7 4   100.83   -30 LegendNANA
04:00 -25.5 -28.4 77 0.0 10 2   100.83   -28 LegendNANA
05:00 -25.3 -28.1 77 0.0 5 1   100.84   -26 LegendNANA
06:00 -25.2 -28.0 77 0.0 4 3   100.79   -28 LegendNANA
07:00 -25.0 -27.9 77 0.0 33 2   100.84   -27 LegendNANA
08:00 -24.9 -27.7 77 0.0 36 1   100.83   -26 LegendNANA
09:00 -24.9 -27.7 77 0.0 34 2   100.84   -27 LegendNANA
10:00 -25.0 -27.8 77 0.0 32 2   100.86   -27 LegendNANA
11:00 -24.9 -27.7 77 0.0 32 2   100.87   -27 LegendNANA
12:00 -24.8 -27.6 77 0.0   0   100.87     LegendNANA
13:00 -24.5 -27.3 77 0.0   0   100.90     LegendNANA
14:00 -24.6 -27.4 77 0.0 36 2   100.91   -27 LegendNANA
15:00 -24.4 -27.2 77 0.0   0   100.92     LegendNANA
16:00 -24.3 -27.1 77 0.0 35 3   100.97   -27 LegendNANA
17:00 -24.4 -27.2 77 0.0 1 2   100.99   -26 LegendNANA
18:00 -24.3 -27.2 77 0.0 34 2   100.98   -26 LegendNANA
19:00 -24.3 -27.1 77 0.0 33 2   101.00   -26 LegendNANA
20:00 -24.4 -27.2 77 0.0   0   101.03     LegendNANA
21:00 -24.5 -27.3 77 0.0   0   101.04     LegendNANA
22:00 -24.4 -27.2 77 0.0 33 2   101.02   -26 LegendNANA
23:00 -24.4 -27.2 77 0.0   0   101.02     LegendNANA

Notes on Data Quality.

Legend

  • E = Estimated
  • M = Missing
  • NA = Not Available*
  • [empty] = Indicates an unobserved value
Date modified: